This demonstration page uses our WeatherBlox Daily Observations layout. Learn more.

Left ArrowRight Arrow

Hourly Observations for May 21, 2022

Temp ( °F °C ) Dew Point ( °F °C ) Humidity (%) Winds ( mph kmh ) Pressure ( in mb ) Visibility ( mi km ) Precip ( " mm )
12:53 am 00:53 Clear 73 22.8 14 -10 10 10 W 8 13 29.55 1001 10 16 0.00 0.00
1:53 am 01:53 Clear 71 21.7 13 -10.6 10 10 WSW 10 17 29.57 1001 10 16 0.00 0.00
2:53 am 02:53 Clear 70 21.1 13 -10.6 11 11 WSW 9 15 29.57 1001 10 16 0.00 0.00
3:53 am 03:53 Clear 73 22.8 14 -10 10 10 WSW 12 19 29.58 1002 10 16 0.00 0.00
4:53 am 04:53 Clear 69 20.6 15 -9.4 12 12 WSW 12 19 29.60 1002 10 16 0.00 0.00
5:53 am 05:53 Clear 66 18.9 17 -8.3 15 15 WSW 9 15 29.63 1003 10 16 0.00 0.00
6:53 am 06:53 Sunny 68 20 18 -7.8 15 15 N 16 26 29.70 1006 10 16 0.00 0.00
7:53 am 07:53 Sunny 65 18.3 44 6.7 47 47 NNE 18 30 29.75 1008 10 16 0.00 0.00
8:53 am 08:53 Sunny 67 19.4 45 7.2 45 45 NNE 22 35 29.81 1010 9 14 0.00 0.00
9:19 am 09:19 Mostly Cloudy with Haze 64 17.8 38 3.3 38 38 N 25 41 29.89 1012 5 8 0.00 0.00
9:53 am 09:53 Cloudy with Haze 64 17.8 35 1.7 34 34 N 24 39 29.88 1012 4 6 0.00 0.00
10:53 am 10:53 Cloudy with Haze 66 18.9 32 0 28 28 N 21 33 29.91 1013 6 10 0.00 0.00
11:53 am 11:53 Cloudy 69 20.6 32 0 25 25 N 18 30 29.93 1013 7 11 0.00 0.00
12:53 pm 12:53 Cloudy 72 22.2 32 0 23 23 N 14 22 29.93 1014 8 13 0.00 0.00
1:53 pm 13:53 Mostly Sunny 75 23.9 33 0.6 22 22 NNE 12 19 29.92 1013 8 13 0.00 0.00
2:53 pm 14:53 Mostly Cloudy 79 26.1 33 0.6 19 19 NE 16 26 29.90 1013 7 11 0.00 0.00
3:53 pm 15:53 Cloudy 81 27.2 33 0.6 18 18 NE 9 15 29.88 1012 7 11 0.00 0.00
4:53 pm 16:53 Partly Cloudy 82 27.8 33 0.6 17 17 VRB 7 11 29.87 1011 9 14 0.00 0.00
5:53 pm 17:53 Sunny 83 28.3 32 0 16 16 undefined N/A 29.86 1011 10 16 0.00 0.00
6:53 pm 18:53 Sunny 84 28.9 32 0 15 15 NE 7 11 29.85 1011 10 16 0.00 0.00
7:53 pm 19:53 Sunny 83 28.3 33 0.6 17 17 NE 12 19 29.87 1012 10 16 0.00 0.00
8:53 pm 20:53 Mostly Clear 80 26.7 34 1.1 19 19 ENE 14 22 29.90 1012 10 16 0.00 0.00
9:53 pm 21:53 Clear 76 24.4 35 1.7 23 23 E 16 26 29.94 1014 10 16 0.00 0.00
10:53 pm 22:53 Clear 74 23.3 36 2.2 25 25 ENE 20 31 29.97 1015 10 16 0.00 0.00
11:53 pm 23:53 Clear 71 21.7 37 2.8 29 29 ENE 16 26 29.98 1015 10 16 0.00 0.00

Powered by AerisWeather